Preview of NWS' New Version of Forecast
This preview is not operational and should not be used for support decisions.

Regional Weather Roundup (RWR)

Issued by National Weather Service (NWS)

                            
000
ASUS46 KSEW 211720
RWRWA 

WASHINGTON REGIONAL WEATHER ROUNDUP
NATIONAL WEATHER SERVICE SEATTLE WA
1000 AM PDT SAT SEP 21 2019

NOTE:"FAIR" INDICATES FEW OR NO CLOUDS BELOW 12,000 FEET WITH NO 
SIGNIFICANT WEATHER AND/OR OBSTRUCTIONS TO VISIBILITY.

WAZ507-509-555>559-211800-
SEATTLE, TACOMA, EVERETT, AND VICINITY
  
CITY           SKY/WX    TMP DP  RH WIND       PRES   REMARKS
EVERETT        CLOUDY    58  56  93 CALM      30.16S                  
BOEING FIELD   NOT AVBL                                               
RENTON         CLOUDY    62  53  72 S7        30.14F                  
SEATAC AIRPORT PTSUNNY   60  54  80 S7        30.15F                  
JBLM-MCCHORD   SUNNY     60  60  99 CALM      30.15F                  
PUYALLUP       CLOUDY    61  57  88 CALM      30.16S                  
BREMERTON      CLOUDY    56  54  93 CALM      30.15F                  
JBLM-FT LEWIS  MOSUNNY   60  60  99 SE6       30.14F                  
TACOMA NARROWS CLOUDY    55  54  96 S3        30.16S                  
$$
 
WAZ001-503-506-510-514-515-211800-
NORTH INTERIOR
  
CITY           SKY/WX    TMP DP  RH WIND       PRES   REMARKS
BELLINGHAM     SUNNY     62  53  72 S8        30.13F                  
FRIDAY HARBOR  PTSUNNY   59  55  87 VRB3      30.14F                  
EASTSOUND      CLOUDY    59  55  88 S5        30.12S                  
PORT ANGELES   CLOUDY    60  52  74 CALM      30.13F                  
EDIZ HOOK      CLOUDY    60  54  80 E5        30.13S                  
PORT TOWNSEND  PTSUNNY   63  55  77 CALM      30.12F                  
NAS WHIDBEY    PTSUNNY   63  54  72 SE6       30.17F                  
ARLINGTON      CLOUDY    57  55  94 CALM      30.15F                  
BURLINGTON     CLOUDY    63  57  82 SE5       30.14F                  
$$
 
WAZ020-022-039-040-504-511-512-211800-
SOUTHWEST INTERIOR
  
CITY           SKY/WX    TMP DP  RH WIND       PRES   REMARKS
SHELTON        CLOUDY    59  53  80 CALM      30.12F                  
OLYMPIA        MOSUNNY   60  55  83 S6        30.15S                  
CHEHALIS       CLOUDY    61  55  82 CALM      30.16S                  
KELSO          CLOUDY    59  56  89 CALM      30.17S                  
VANCOUVER      CLOUDY    62  56  80 VRB3      30.16S                  
SCAPPOOSE, OR  CLOUDY    58  56  93 CALM      30.15F                  
PORTLAND, OR   PTSUNNY   62  55  77 CALM      30.16F                  
$$
 
WAZ021-516-517-211800-
WASHINGTON COAST
  
CITY           SKY/WX    TMP DP  RH WIND       PRES   REMARKS
FORKS          CLOUDY    59  56  89 CALM      30.12S                  
HOQUIAM        CLOUDY    59  59 100 E3        30.14S FOG              
ASTORIA, OR    CLOUDY    62  59  90 E5        30.14S                  
$$
 
WAZ019-023-024-040-567>569-211800-
CASCADE MOUNTAINS AND COLUMBIA GORGE
  
CITY           SKY/WX    TMP DP  RH WIND       PRES   REMARKS
STAMPEDE PASS  FOG       48  46  93 VRB5      30.15F VSB 1/2          
TROUTDALE, OR  CLOUDY    61  55  81 SW3       30.16S                  
HOOD RIVER, OR SUNNY     64  52  63 W5        30.12F                  
THE DALLES, OR SUNNY     64  52  64 VRB3      30.11F                  
$$

WAZ026-027-041>044-520-521-211800-
EAST SLOPES
  
CITY           SKY/WX    TMP DP  RH WIND       PRES   REMARKS
OMAK           SUNNY     57  45  64 VRB3      30.09F                  
WENATCHEE      SUNNY     60  45  57 VRB6      30.08S                  
ELLENSBURG     SUNNY     65  46  50 NW14      30.09F                  
YAKIMA         SUNNY     63  45  51 CALM      30.10F                  
SUNNYSIDE ARPT SUNNY     60  48  65 CALM      30.11R                  
YAKIMA TC      FAIR      60  46  58 CALM      30.08F                  
$$

WAZ028-034-035-211800-
COLUMBIA BASIN
  
CITY           SKY/WX    TMP DP  RH WIND       PRES   REMARKS
EPHRATA        SUNNY     59  47  64 VRB6      30.09S                  
MOSES LAKE     MOSUNNY   61  47  59 CALM      30.09S                  
PASCO          MOSUNNY   65  50  58 S8        30.10S                  
RICHLAND ARPT  MOSUNNY   66  51  57 SW6       30.10                   
HERMISTON, OR  SUNNY     67  48  50 W10       30.11S                  
$$

WAZ036>038-211800-
NORTHEAST WASHINGTON
  
CITY           SKY/WX    TMP DP  RH WIND       PRES   REMARKS
SPOKANE GEIGER PTSUNNY   56  47  71 SW7       30.12S                  
SPOKANE FELTS  MOSUNNY   57  47  69 VRB7      30.13S                  
FAIRCHILD AFB  MOSUNNY   56  52  89 S5        30.11S                  
COEURDALENE,ID CLOUDY    54  47  77 SW5       30.14S                  
DEER PARK      MOSUNNY   52  45  77 S3        30.13S                  
$$

WAZ029>033-211800-
SOUTHEAST WASHINGTON
  
CITY           SKY/WX    TMP DP  RH WIND       PRES   REMARKS
PULLMAN        SUNNY     59  46  62 SW6       30.15S                  
LEWISTON, ID   PTSUNNY   60  52  74 CALM      30.12F                  
WALLA WALLA    MOSUNNY   64  46  52 SW14      30.12F                  
PENDLETON, OR  MOSUNNY   62  47  57 S6        30.12F                  
$$